TimeMST,TemperatureF,Dew PointF,Humidity,Sea Level PressureIn,VisibilityMPH,Wind Direction,Wind SpeedMPH,Gust SpeedMPH,PrecipitationIn,Events,Conditions,WindDirDegrees,DateUTC
12:53 AM,37.0,25.0,62,29.83,10.0,West,11.5,-,N/A,,Overcast,270,2013-02-17 07:53:00
1:53 AM,36.0,27.0,70,29.84,10.0,WSW,12.7,-,N/A,,Overcast,250,2013-02-17 08:53:00
2:53 AM,33.1,30.0,89,29.86,3.0,NW,10.4,-,0.00,Snow,Light Snow,310,2013-02-17 09:53:00
2:55 AM,33.8,30.2,87,29.77,1.8,NW,12.7,-,0.00,Snow,Light Snow,310,2013-02-17 09:55:00
3:03 AM,32.0,30.2,93,29.76,1.2,WNW,8.1,-,0.01,Snow,Light Snow,290,2013-02-17 10:03:00
3:07 AM,32.0,30.2,93,29.76,2.0,WNW,10.4,-,0.01,Snow,Light Snow,300,2013-02-17 10:07:00
3:14 AM,32.0,30.2,93,29.76,9.0,WNW,10.4,-,0.01,Snow,Light Snow,300,2013-02-17 10:14:00
3:53 AM,34.0,25.0,70,29.84,10.0,West,13.8,-,0.01,,Overcast,260,2013-02-17 10:53:00
4:53 AM,33.1,21.9,64,29.83,10.0,WSW,20.7,-,N/A,,Scattered Clouds,250,2013-02-17 11:53:00
5:53 AM,33.8,19.4,56,29.73,10.0,West,19.6,29.9,N/A,,Clear,260,2013-02-17 12:53:00
6:41 AM,32.0,19.4,60,29.78,10.0,North,13.8,29.9,N/A,,Scattered Clouds,350,2013-02-17 13:41:00
6:53 AM,32.0,19.0,59,29.86,10.0,WSW,8.1,-,N/A,,Scattered Clouds,240,2013-02-17 13:53:00
7:53 AM,33.1,19.9,59,29.88,10.0,West,11.5,-,N/A,,Overcast,270,2013-02-17 14:53:00
8:53 AM,33.1,19.9,59,29.92,10.0,West,17.3,25.3,N/A,,Overcast,260,2013-02-17 15:53:00
9:53 AM,33.1,21.0,61,29.94,10.0,West,21.9,32.2,N/A,,Overcast,270,2013-02-17 16:53:00
10:53 AM,34.0,21.0,59,29.95,10.0,West,19.6,27.6,N/A,,Overcast,280,2013-02-17 17:53:00
11:53 AM,35.1,21.0,57,29.95,10.0,West,16.1,-,N/A,,Overcast,270,2013-02-17 18:53:00
12:53 PM,37.4,19.4,48,29.83,10.0,West,18.4,24.2,N/A,,Overcast,280,2013-02-17 19:53:00
1:53 PM,37.0,21.0,52,29.94,10.0,West,18.4,26.5,N/A,,Overcast,260,2013-02-17 20:53:00
2:53 PM,37.0,21.0,52,29.96,10.0,West,20.7,27.6,N/A,,Mostly Cloudy,260,2013-02-17 21:53:00
3:53 PM,39.0,21.0,49,29.96,10.0,West,13.8,-,N/A,,Scattered Clouds,260,2013-02-17 22:53:00
4:53 PM,37.0,19.0,48,30.00,10.0,West,16.1,-,N/A,,Overcast,280,2013-02-17 23:53:00
5:53 PM,30.0,25.0,82,30.05,4.0,North,11.5,-,0.00,Snow,Light Snow,360,2013-02-18 00:53:00
6:53 PM,30.0,26.1,85,30.09,10.0,Calm,Calm,-,0.00,,Overcast,0,2013-02-18 01:53:00
7:53 PM,28.9,25.0,85,30.10,10.0,Calm,Calm,-,N/A,,Overcast,0,2013-02-18 02:53:00
8:53 PM,30.0,25.0,82,30.10,9.0,Calm,Calm,-,0.00,Snow,Light Snow,0,2013-02-18 03:53:00
10:53 PM,28.9,26.1,89,30.12,10.0,East,3.5,-,N/A,,Overcast,90,2013-02-18 05:53:00
11:23 PM,28.4,24.8,86,30.00,3.0,NNW,9.2,-,0.00,Snow,Light Snow,340,2013-02-18 06:23:00
11:27 PM,28.4,24.8,86,30.00,1.8,NNW,12.7,-,0.00,Snow,Light Snow,340,2013-02-18 06:27:00
11:38 PM,28.4,24.8,86,30.00,3.0,NNW,12.7,-,0.00,Snow,Light Snow,330,2013-02-18 06:38:00
11:53 PM,28.0,25.0,88,30.15,4.0,NNW,10.4,-,0.00,Snow,Light Snow,330,2013-02-18 06:53:00